Location: Albany
(35.0000°S, 118.0000°E)
Time: 13:33:02
(UTC-05:00)

Daily predictions for brighter satellites

Satellite Brightness Start Highest point End
(mag) Time Altitude Azimuth Time Altitude Azimuth Time Altitude Azimuth
Cosmos 1980 Rocket 4.3 12:43:47 10° S 12:46:17 22° SSE 12:46:17 22° SSE
ADEOS II 3.9 13:16:46 27° SSE 13:16:46 27° SSE 13:19:22 10° S
SL-16 R/B 3.9 13:13:25 10° SE 13:18:27 30° E 13:18:27 30° E
SL-16 R/B 4.5 13:19:35 10° S 13:23:48 21° ESE 13:27:59 10° ENE
SJ 16-02 4.1 13:24:54 10° S 13:26:15 17° SSE 13:26:15 17° SSE
Cosmos 2082 Rocket 4.1 13:34:07 21° SSW 13:34:07 21° SSW 13:36:31 10° S
USA 267 4.3 13:43:09 10° SSE 13:48:56 33° SSW 13:49:18 33° SW
Cosmos 1125 Rocket 4.4 13:53:53 10° S 13:57:53 46° SSE 13:57:53 46° SSE
Cosmos 972 Rocket 4.5 14:07:33 64° E 14:07:33 64° E 14:12:58 10° SSE
Timation 2 Rocket 4.2 14:08:57 59° SW 14:08:57 59° SW 14:14:48 10° SSE
Nadezhda 3 Rocket 3.9 14:10:15 84° ENE 14:10:17 84° E 14:16:37 10° S
MOZ.5/SAFIR/RUBIN 5/SL-8 4.4 14:09:57 10° SSE 14:14:15 55° ESE 14:14:15 55° ESE
DELTA 2 R/B (1) 3.7 14:19:32 68° S 14:19:49 69° SSE 14:25:28 10° E
USA 234 3.6 14:14:18 10° ENE 14:20:45 62° SE 14:27:16 10° SW
Meteor 2-10 Rocket 4.1 14:16:04 10° S 14:21:37 59° E 14:23:35 37° NE
Cosmos 2322 Rocket 2.6 14:16:41 10° SSW 14:22:18 60° ESE 14:27:51 10° NNE
Cosmos 1932 4.2 14:25:20 76° NNW 14:25:52 88° ENE 14:32:09 10° SSE
Cosmos 2360 Rocket 4.1 14:25:49 10° S 14:30:45 29° ESE 14:35:39 10° ENE
CZ-4B R/B 3.5 14:31:20 15° NNE 14:36:08 70° ESE 14:41:50 10° S
Tiangong 2 3.5 14:44:00 19° S 14:44:00 19° S 14:46:13 10° SE
USA 81 3.9 14:48:29 58° NNW 14:49:28 76° W 14:54:50 10° S
Cosmos 1934 Rocket 4.1 14:44:35 10° S 14:50:51 77° E 14:57:07 10° N
CZ-4B DEB 4.1 14:50:43 34° N 14:53:15 71° WNW 14:58:53 10° SSW
CZ-4B R/B 4.4 14:55:17 28° SW 14:55:17 28° SW 14:57:48 10° SSW
ADEOS II 4.3 14:57:43 11° SW 14:57:43 11° SW 14:57:57 10° SW
SL-23 DEB 4.4 14:56:55 39° S 14:56:55 39° S 14:59:25 10° SE
Okean O Rocket 1.7 15:01:03 56° W 15:01:03 56° W 15:05:22 10° SSW
SL-16 R/B 3.1 14:56:46 10° S 15:02:24 37° WSW 15:03:32 34° W
Meteor 1-31 Rocket 2.7 15:02:12 61° N 15:02:50 79° WNW 15:06:52 10° SSW
IRS-1C Rocket 4.0 15:01:44 10° N 15:07:00 80° WNW 15:12:21 10° SSW
SL-16 R/B 2.3 15:02:40 10° SSW 15:08:11 50° WNW 15:13:38 10° N
GPS 2-04 Rocket1 3.7 15:09:32 30° NNE 15:09:32 30° NNE 15:11:56 10° NE
Cosmos 1375 Rocket 4.5 15:07:01 30° NNW 15:10:29 87° WSW 15:16:57 10° SSE
Cosmos 405 Rocket 3.7 15:09:05 10° S 15:13:07 51° E 15:17:07 10° NNE
Cosmos 1821 Rocket 4.2 15:08:42 10° SSW 15:14:34 47° W 15:17:59 24° NNW
CZ-4B R/B 3.8 15:15:00 51° NW 15:15:24 54° W 15:19:10 10° SSW
Lacrosse 4 Rocket 2.8 15:13:19 10° S 15:17:26 40° ESE 15:21:25 10° NE
Cosmos 1339 Rocket 4.5 15:11:38 10° N 15:17:47 84° E 15:23:58 10° S
ATLAS 2A CENTAUR R/B 3.3 15:15:06 30° NW 15:17:54 43° N 15:31:22 10° ENE
CZ-2C R/B 3.9 15:13:13 10° NE 15:18:00 40° ESE 15:22:44 10° S
Sich 1 3.5 15:19:13 38° WNW 15:19:52 41° W 15:24:05 10° S
Shenzhou-11 Module 3.2 15:22:09 22° SW 15:23:39 39° SSE 15:26:32 10° E
Cosmos 1408 3.9 15:25:25 10° NNE 15:28:49 40° E 15:32:16 10° SSE
Lacrosse 5 4.3 15:26:33 10° SSW 15:30:36 23° SE 15:34:38 10° E
Cosmos 1470 Rocket 3.4 15:29:25 12° N 15:33:23 82° W 15:37:47 10° S
Abrixas rocket 2.4 15:33:33 13° SW 15:36:25 70° SE 15:39:41 10° ENE
Cosmos 2219 Rocket 4.4 15:32:10 10° S 15:37:02 28° ESE 15:41:51 10° ENE
Cosmos 2084 Rocket 4.2 15:35:46 12° NNW 15:39:34 51° ENE 15:43:54 10° SE
ATLAS 3B R/B 2.7 15:34:38 13° NNW 15:40:42 88° ENE 15:47:46 10° SSE
Cosmos 1707 Rocket 4.4 15:37:42 10° SSW 15:41:32 29° W 15:43:36 20° NW
NOAA 6 3.9 15:37:15 10° N 15:42:22 72° WNW 15:47:34 10° SSW
Cosmos 923 Rocket 4.0 15:39:17 10° NNW 15:44:36 81° WSW 15:49:57 10° SSE
PAYLOAD A 4.1 15:42:34 10° N 15:47:48 72° WNW 15:53:16 10° SSW
Cosmos 1933 4.0 15:44:29 10° SSW 15:48:16 34° W 15:52:00 10° NNW
Cosmos 1633 Rocket 4.2 15:47:06 20° WNW 15:48:48 26° WSW 15:52:31 10° SSW
NOSS 3-2 (A) 4.5 15:41:45 10° NNW 15:50:00 67° ENE 15:57:42 10° SE
Cosmos 1867 3.7 15:44:34 10° SSW 15:50:01 82° ESE 15:55:24 10° NNE
Cosmos 2227 Rocket 4.2 15:46:30 10° NNE 15:51:18 29° ENE 15:56:07 10° SE
Cosmos 2219 3.3 15:48:04 10° NNW 15:53:50 86° ENE 15:59:39 10° SSE
Cosmos 1441 Rocket 3.6 15:50:49 10° SSW 15:54:34 42° W 15:58:18 10° NNW
Cosmos 2112 Rocket 4.1 15:50:22 10° NNW 15:55:35 82° ENE 16:00:50 10° SSE
Cosmos 2237 4.2 15:50:48 10° SSW 15:56:35 76° WNW 16:02:17 10° NNE
Aureole 1 4.1 15:53:08 10° SSW 15:56:37 74° WNW 15:59:38 10° N
OAO 2 Rocket 4.2 15:52:43 14° NW 15:56:56 42° NNE 16:01:57 10° E
Okean-O 2.6 15:53:49 10° N 15:58:12 62° WNW 16:02:41 10° SSW
Cosmos 1605 Rocket 4.4 15:54:02 10° SSW 16:00:00 42° W 16:05:49 10° NNW
IDEFIX/ARIANE 42P 2.7 15:55:22 10° N 16:00:24 51° W 16:05:31 10° SSW
USA 234 3.9 15:58:15 10° N 16:03:55 31° NW 16:09:39 10° WSW
Cosmos 1782 3.5 16:00:06 10° S 16:04:09 60° E 16:08:09 10° NNE
Cosmos 1825 2.1 16:00:40 10° NNW 16:04:28 69° W 16:08:20 10° S
Cosmos 2297 Rocket 4.0 15:59:54 10° NNE 16:04:52 33° ENE 16:09:53 10° SE
Cosmos 2344 4.3 15:52:49 10° SSW 16:05:16 85° WNW 16:14:14 10° NNE
Cosmos 1892 4.4 16:04:02 14° WNW 16:05:39 17° WSW 16:08:15 10° SSW
Cosmos 2322 Rocket 3.7 16:02:37 10° WSW 16:05:43 15° W 16:08:49 10° NW
Cosmos 2100 Rocket 4.1 15:59:35 10° S 16:05:59 84° E 16:12:13 10° N
DELTA 2 R/B (1) 3.9 16:00:49 10° WSW 16:06:12 47° NNW 16:11:34 10° NE
USA 238 DEB 4.0 15:59:24 10° NW 16:06:34 60° SW 16:13:44 10° SSE
USA 238 4.0 15:59:29 10° NW 16:06:39 61° SW 16:13:49 10° SSE
Cosmos 1933 Rocket 4.2 16:03:41 10° NNW 16:07:51 38° W 16:12:06 10° S
DELTA 2 R/B(2) 3.8 16:07:59 15° W 16:09:28 42° NNW 16:12:11 10° NE
Cosmos 2360 Rocket 2.8 16:09:37 10° SW 16:14:42 34° WNW 16:19:45 10° NNW
Cosmos 1869 Rocket 3.9 16:13:04 10° N 16:17:33 74° E 16:22:06 10° S
BREEZE M DEB (TANK) 3.4 16:15:54 10° W 16:18:03 21° NW 16:20:50 10° NNE
Meteor 2-3 Rocket 4.5 16:15:01 10° NW 16:20:02 32° WSW 16:25:04 10° SSW
Tiangong 2 2.8 16:18:11 10° SW 16:21:08 31° SSE 16:24:04 10° E
Cosmos 1862 3.8 16:20:20 10° N 16:24:22 68° E 16:28:29 10° SSE
Cosmos 1680 Rocket 3.9 16:20:04 10° NW 16:25:02 43° WSW 16:30:03 10° S
SL-8 R/B 3.8 16:21:26 10° NW 16:26:16 79° SW 16:31:11 10° SE
